This demonstration page uses our WeatherBlox Daily Observations layout. Learn more.

Left ArrowRight Arrow

Hourly Observations for July 2, 2018

Temp ( °F °C ) Dew Point ( °F °C ) Humidity (%) Winds ( mph kmh ) Pressure ( in mb ) Visibility ( mi km ) Precip ( " mm )
12:53 am 00:53 Clear 83 28.3 46 7.8 27 27 Calm 29.85 1011 10 16 0.00 0.00
1:53 am 01:53 Clear 83 28.3 44 6.7 25 25 N 6 9 29.85 1011 10 16 0.00 0.00
2:53 am 02:53 Clear 85 29.4 37 2.8 18 18 N 12 19 29.85 1011 10 16 0.00 0.00
3:53 am 03:53 Clear 84 28.9 37 2.8 19 19 NNW 10 17 29.85 1011 10 16 0.00 0.00
4:53 am 04:53 Clear 82 27.8 37 2.8 20 20 NNW 9 15 29.85 1011 10 16 0.00 0.00
5:53 am 05:53 Sunny 80 26.7 39 3.9 23 23 NW 6 9 29.86 1011 10 16 0.00 0.00
6:53 am 06:53 Sunny 80 26.7 41 5 25 25 NNW 8 13 29.87 1012 10 16 0.00 0.00
7:53 am 07:53 Sunny 84 28.9 42 5.6 23 23 NNW 5 7 29.88 1012 10 16 0.00 0.00
8:53 am 08:53 Sunny 86 30 41 5 20 20 NNW 10 17 29.91 1013 10 16 0.00 0.00
9:53 am 09:53 Sunny 89 31.7 43 6.1 20 20 NNW 12 19 29.86 1011 10 16 0.00 0.00
10:53 am 10:53 Sunny 93 33.9 44 6.7 18 18 N 14 22 29.85 1011 10 16 0.00 0.00
11:53 am 11:53 Sunny 95 35 42 5.6 16 16 N 8 13 29.84 1011 10 16 0.00 0.00
12:53 pm 12:53 Sunny 99 37.2 40 4.4 13 13 N 10 17 29.82 1010 10 16 0.00 0.00
1:53 pm 13:53 Sunny 100 37.8 39 3.9 12 12 undefined N/A 29.79 1009 10 16 0.00 0.00
2:53 pm 14:53 Sunny 102 38.9 41 5 12 12 N 10 17 29.77 1008 10 16 0.00 0.00
3:53 pm 15:53 Sunny 103 39.4 41 5 12 12 NE 10 17 29.74 1007 10 16 0.00 0.00
4:53 pm 16:53 Sunny 104 40 38 3.3 10 10 VRB 6 9 29.72 1006 10 16 0.00 0.00
5:53 pm 17:53 Sunny 105 40.6 36 2.2 9 9 NNE 8 13 29.69 1006 10 16 0.00 0.00
6:53 pm 18:53 Sunny 104 40 34 1.1 9 9 NNE 9 15 29.68 1005 10 16 0.00 0.00
7:53 pm 19:53 Sunny 101 38.3 33 0.6 9 9 N 6 9 29.67 1005 10 16 0.00 0.00
8:53 pm 20:53 Clear 95 35 37 2.8 13 13 NNW 6 9 29.68 1005 10 16 0.00 0.00
9:53 pm 21:53 Clear 90 32.2 56 13.3 32 32 NNW 5 7 29.72 1006 10 16 0.00 0.00
10:53 pm 22:53 Clear 84 28.9 60 15.6 44 44 Calm 29.72 1006 10 16 0.00 0.00
11:53 pm 23:53 Clear 80 26.7 57 13.9 45 45 N 9 15 29.73 1007 10 16 0.00 0.00

Powered by AerisWeather